User: anonymous   Login
Location: Most
(50.5330°N, 13.6500°E)
Time: 05:40:26
(UTC+01:00)
Language:

LilacSat-2 - Orbit

View from above orbital plane
View from above orbital plane
View from above satellite
View from above satellite

Ground track
Ground track

The orbit data is extracted from the following two-line orbital elements,

1 40908U 15049K   22026.71892670  .00001404  00000-0  78778-4 0  9992
2 40908  97.5130  28.8380 0016449 142.2963 333.0536 15.14901726351028
Epoch (UTC): 26 January 2022 17:15:15
Eccentricity: 0.0016449
inclination: 97.5130°
perigee height: 510 km
apogee height: 532 km
right ascension of ascending node: 28.8380°
argument of perigee: 142.2963°
revolutions per day: 15.14901726
mean anomaly at epoch: 333.0536°
orbit number at epoch: 35102

The dashed part of the orbit path shows where the satellite is in the earth's shadow,  

DLR